Location: Cahas Mountain Overlook
(37.0833°N, 80.1000°W)
Time: 11:18:55
(UTC-04:00)

Vanguard 1 Rocket - Pass Details

Date: 12 February 2026
Orbit: 653 x 4214 km, 34.3° (Epoch: 15 March)

Event Time Altitude Azimuth Distance (km) Brightness Sun altitude
Rises 21:04:05 0° 286° (WNW) 7,420 13.0 -37.6°
Reaches altitude 10° 21:08:53 10° 282° (WNW) 6,739 12.5 -38.6°
Maximum altitude 21:31:09 47° 218° (SW) 4,991 11.0 -42.8°
Enters shadow 21:43:00 32° 171° (S) 5,460 11.0 -45.1°
